Weather History for Milford, UT

Change the Weather History Date:

Wednesday, July 17, 2013

  Actual Average Record
Temperature  
Mean Temperature 83 °F -  
Max Temperature 95 °F 92 °F 106 °F (1998)
Min Temperature 71 °F 56 °F 50 °F (2011)
Cooling Degree Days 18    
Growing Degree Days 33 (Base 50)    
Moisture  
Dew Point 46 °F    
Average Humidity 29    
Maximum Humidity 53    
Minimum Humidity 8    
Precipitation  
Precipitation 0.00 in - - ()
Sea Level Pressure  
Sea Level Pressure 29.93 in    
Wind  
Wind Speed 12 mph (South)    
Max Wind Speed 20 mph    
Max Gust Speed 29 mph    
Visibility 10 miles    
Events      
Averages and records for this station are not official NWS values.
T = Trace of Precipitation, MM = Missing Value Source: NWS Daily Summary

Daily Weather History Graph

Daily Weather History Graph

Search for Another Location

Airport:

Trip Planner

Search our weather history database for the weather conditions in past years. The results will help you decide how hot, cold, wet, or windy it might be!

Date:

Astronomy

Jul. 17, 2013 Rise Set
Actual Time 6:22 AM MDT 8:54 PM MDT
Civil Twilight 5:51 AM MDT 9:24 PM MDT
Nautical Twilight 5:13 AM MDT 10:02 PM MDT
Astronomical Twilight 4:30 AM MDT 10:44 PM MDT
Moon 3:48 PM MDT (7/17) 1:30 AM MDT (7/17)
Length of Visible Light 15h 33m
Length of Day
14h 31m
Waxing Gibbous, 68% of the Moon is Illuminated
Jul 17
Waxing Gibbous
Jul 22
Full
Jul 29
Last Quarter
Aug 6
New
Aug 14
First Quarter

Hourly Weather History & Observations

Time (MDT) Temp. Dew Point Humidity Pressure Visibility Wind Dir Wind Speed Gust Speed Precip Events Conditions
12:52 AM 75.9 °F 52.0 °F 43% 29.89 in 10.0 mi SSW 11.5 mph - N/A   Mostly Cloudy
1:52 AM 73.9 °F 53.1 °F 48% 29.91 in 10.0 mi South 10.4 mph - N/A   Partly Cloudy
2:52 AM 73.0 °F 54.0 °F 51% 29.94 in 10.0 mi SSW 6.9 mph - N/A   Overcast
3:52 AM 72.0 °F 53.1 °F 51% 29.93 in 10.0 mi South 9.2 mph - 0.00 in   Mostly Cloudy
4:52 AM 72.0 °F 53.1 °F 51% 29.93 in 10.0 mi SSW 8.1 mph - N/A   Mostly Cloudy
5:52 AM 71.1 °F 53.1 °F 53% 29.95 in 10.0 mi SSW 10.4 mph - N/A   Partly Cloudy
6:52 AM 72.0 °F 53.1 °F 51% 29.96 in 10.0 mi SSW 11.5 mph - N/A   Clear
7:52 AM 75.9 °F 50.0 °F 40% 29.97 in 10.0 mi South 13.8 mph - N/A   Clear
8:52 AM 78.1 °F 50.0 °F 37% 29.99 in 10.0 mi South 17.3 mph - N/A   Clear
9:52 AM 82.9 °F 46.0 °F 27% 29.99 in 10.0 mi South 15.0 mph - N/A   Clear
10:52 AM 84.0 °F 44.1 °F 25% 29.98 in 10.0 mi South 18.4 mph 24.2 mph N/A   Clear
11:52 AM 87.1 °F 42.1 °F 21% 29.97 in 10.0 mi South 16.1 mph 21.9 mph N/A   Clear
12:52 PM 90.0 °F 37.0 °F 15% 29.96 in 10.0 mi South 12.7 mph 23.0 mph N/A   Clear
1:52 PM 91.0 °F 37.9 °F 15% 29.94 in 10.0 mi South 11.5 mph - N/A   Clear
2:52 PM 93.0 °F 39.0 °F 15% 29.91 in 10.0 mi SSE 9.2 mph - N/A   Clear
3:52 PM 93.9 °F 39.0 °F 15% 29.90 in 10.0 mi South 19.6 mph 28.8 mph N/A   Clear
4:52 PM 95.0 °F 37.0 °F 13% 29.88 in 10.0 mi South 17.3 mph 23.0 mph N/A   Clear
5:52 PM 91.9 °F 37.9 °F 15% 29.87 in 10.0 mi South 12.7 mph 19.6 mph N/A   Clear
6:52 PM 91.0 °F 39.9 °F 17% 29.86 in 10.0 mi SSE 15.0 mph - N/A   Clear
7:52 PM 88.0 °F 45.0 °F 22% 29.87 in 10.0 mi SE 11.5 mph - N/A   Partly Cloudy
8:52 PM 84.0 °F 46.0 °F 26% 29.89 in 10.0 mi SSE 9.2 mph - N/A   Clear
9:52 PM 81.0 °F 45.0 °F 28% 29.90 in 10.0 mi Calm Calm - N/A   Mostly Cloudy
10:52 PM 73.9 °F 44.1 °F 34% 29.93 in 10.0 mi West 6.9 mph - N/A   Partly Cloudy
11:52 PM 75.0 °F 46.0 °F 36% 29.92 in 10.0 mi SSW 9.2 mph - N/A   Clear